Date String (YYYY-MM-DD hh:mm:ss) UTC,Instrument flags,Ambient pressure (hPa),Sample flow (lpm),Bypass flow (lpm),Sample temperature (°C),Ambient temperature (°C),ASC tube jacket temperature (°C),LED temperature (°C),Box temperature (°C),Sample RH (%),Span deviation,Mass concentration (μg/m³),Mass concentration (μg/m³),Mass concentration (μg/m³)
DateTimeUTC,F1_M11,P_M11,Q1_M11,Q2_M11,T1_M11,T2_M11,T3_M11,T4_M11,T5_M11,U1_M11,ZSPAN_M11,X0_M11,X2_M11,X1_M11
2022-01-15 19:00:00,,0831.3,5.00,0.00,22.6,22.1,00.0,31.5,24.4,09.8,0000.0,0006.06,0003.33,0003.13
2022-01-15 19:01:00,,0831.4,5.00,0.00,22.6,22.1,00.0,31.5,24.5,09.8,0000.0,0005.95,0003.36,0003.14
2022-01-15 19:02:00,,0831.4,4.99,0.00,22.7,22.1,00.0,31.5,24.5,09.7,0000.0,0006.00,0003.37,0003.15
2022-01-15 19:03:00,,0831.3,5.01,0.00,22.7,22.1,00.0,31.6,24.5,09.8,0000.0,0006.08,0003.40,0003.16
2022-01-15 19:04:00,,0831.2,4.99,0.00,22.7,22.1,00.0,31.6,24.5,09.9,0000.0,0006.05,0003.40,0003.16
2022-01-15 19:05:00,,0831.2,5.00,0.00,22.7,22.1,00.0,31.6,24.5,09.8,0000.0,0006.07,0003.40,0003.16
2022-01-15 19:06:00,,0831.2,5.01,0.00,22.7,22.1,00.0,31.6,24.5,09.7,0000.0,0006.15,0003.39,0003.16
2022-01-15 19:07:00,,0831.2,4.98,0.00,22.7,22.1,00.0,31.6,24.5,09.7,0000.0,0006.22,0003.37,0003.14
2022-01-15 19:08:00,,0831.2,5.01,0.00,22.7,22.2,00.0,31.6,24.5,09.7,0000.0,0007.04,0003.36,0003.13
2022-01-15 19:09:00,,0831.2,5.00,0.00,22.7,22.2,00.0,31.6,24.5,09.8,0000.0,0008.07,0003.34,0003.12
2022-01-15 19:10:00,,0831.1,5.00,0.00,22.7,22.2,00.0,31.6,24.5,09.6,0000.0,0007.93,0003.35,0003.12
2022-01-15 19:11:00,,0831.0,5.00,0.00,22.7,22.2,00.0,31.7,24.6,09.7,0000.0,0007.52,0003.34,0003.12
2022-01-15 19:12:00,,0831.0,5.00,0.00,22.8,22.2,00.0,31.7,24.6,09.9,0000.0,0007.48,0003.30,0003.07
2022-01-15 19:13:00,,0830.9,4.98,0.00,22.8,22.2,00.0,31.7,24.6,09.7,0000.0,0007.89,0003.28,0003.04
2022-01-15 19:14:00,,0831.0,4.99,0.00,22.8,22.2,00.0,31.7,24.6,09.6,0000.0,0007.82,0003.25,0003.02
2022-01-15 19:15:00,,0831.1,5.00,0.00,22.8,22.2,00.0,31.7,24.6,09.7,0000.0,0007.94,0003.26,0003.00
2022-01-15 19:16:00,,0831.1,5.01,0.00,22.8,22.2,00.0,31.7,24.6,09.8,0000.0,0008.16,0003.26,0002.99
2022-01-15 19:17:00,,0831.1,5.01,0.00,22.8,22.2,00.0,31.7,24.6,09.7,0000.0,0008.67,0003.27,0002.99
2022-01-15 19:18:00,,0831.0,4.99,0.00,22.8,22.2,00.0,31.7,24.6,09.7,0000.0,0008.61,0003.29,0003.00
2022-01-15 19:19:00,,0831.0,5.01,0.00,22.8,22.2,00.0,31.7,24.6,09.7,0000.0,0008.09,0003.28,0003.01
2022-01-15 19:20:00,,0831.0,4.99,0.00,22.8,22.2,00.0,31.7,24.6,09.5,0000.0,0007.04,0003.28,0003.02
2022-01-15 19:21:00,,0830.9,5.02,0.00,22.8,22.2,00.0,31.8,24.6,09.4,0000.0,0006.58,0003.26,0003.01
2022-01-15 19:22:00,,0830.8,4.99,0.00,22.8,22.2,00.0,31.8,24.6,09.4,0000.0,0006.64,0003.26,0003.00
2022-01-15 19:23:00,,0830.8,5.00,0.00,22.8,22.2,00.0,31.8,24.6,09.5,0000.0,0007.42,0003.29,0003.02
2022-01-15 19:24:00,,0830.8,5.01,0.00,22.8,22.2,00.0,31.8,24.7,09.6,0000.0,0007.06,0003.31,0003.03
2022-01-15 19:25:00,,0830.8,4.99,0.00,22.9,22.3,00.0,31.8,24.7,09.7,0000.0,0007.88,0003.32,0003.04
2022-01-15 19:26:00,,0830.7,4.99,0.00,22.9,22.3,00.0,31.8,24.7,09.5,0000.0,0008.10,0003.35,0003.05
2022-01-15 19:27:00,,0830.6,5.00,0.00,22.9,22.3,00.0,31.8,24.7,09.5,0000.0,0007.89,0003.33,0003.04
2022-01-15 19:28:00,,0830.5,5.00,0.00,22.9,22.3,00.0,31.8,24.7,09.5,0000.0,0007.20,0003.32,0003.05
2022-01-15 19:29:00,,0830.6,5.00,0.00,22.9,22.3,00.0,31.8,24.7,09.5,0000.0,0007.27,0003.33,0003.05
2022-01-15 19:30:00,,0830.6,5.01,0.00,22.9,22.3,00.0,31.8,24.7,09.4,0000.0,0007.37,0003.34,0003.06
2022-01-15 19:31:00,,0830.5,4.99,0.00,22.9,22.3,00.0,31.8,24.7,09.4,0000.0,0007.41,0003.36,0003.05
2022-01-15 19:32:00,,0830.5,5.00,0.00,22.9,22.3,00.0,31.8,24.7,09.4,0000.0,0007.46,0003.39,0003.06
2022-01-15 19:33:00,,0830.4,4.99,0.00,22.9,22.3,00.0,31.8,24.7,09.5,0000.0,0007.46,0003.40,0003.06
2022-01-15 19:34:00,,0830.4,5.00,0.00,22.9,22.3,00.0,31.9,24.7,09.7,0000.0,0007.41,0003.38,0003.05
2022-01-15 19:35:00,,0830.4,4.99,0.00,22.9,22.4,00.0,31.9,24.8,09.7,0000.0,0007.89,0003.37,0003.05
2022-01-15 19:36:00,,0830.4,5.01,0.00,23.0,22.4,00.0,31.9,24.8,09.6,0000.0,0007.39,0003.37,0003.06
2022-01-15 19:37:00,,0830.4,4.99,0.00,23.0,22.4,00.0,31.9,24.8,09.5,0000.0,0006.97,0003.38,0003.07
2022-01-15 19:38:00,,0830.4,5.00,0.00,23.0,22.4,00.0,31.9,24.8,09.5,0000.0,0007.03,0003.40,0003.09
2022-01-15 19:39:00,,0830.3,4.99,0.00,23.0,22.4,00.0,31.9,24.7,09.4,0000.0,0007.24,0003.44,0003.10
2022-01-15 19:40:00,,0830.3,5.01,0.00,23.0,22.4,00.0,31.9,24.8,09.3,0000.0,0007.45,0003.46,0003.09
2022-01-15 19:41:00,,0830.2,5.00,0.00,23.0,22.4,00.0,31.9,24.7,09.5,0000.0,0007.68,0003.48,0003.10
2022-01-15 19:42:00,,0830.2,5.00,0.00,23.0,22.4,00.0,31.9,24.7,09.5,0000.0,0007.72,0003.49,0003.10
2022-01-15 19:43:00,,0830.3,5.01,0.00,23.0,22.4,00.0,31.9,24.7,09.6,0000.0,0007.67,0003.47,0003.10
2022-01-15 19:44:00,,0830.3,5.00,0.00,23.0,22.4,00.0,31.9,24.7,09.4,0000.0,0007.94,0003.46,0003.10
2022-01-15 19:45:00,,0830.2,5.01,0.00,23.0,22.4,00.0,31.9,24.7,09.3,0000.0,0007.71,0003.46,0003.10
2022-01-15 19:46:00,,0830.2,4.99,0.00,23.0,22.4,00.0,31.9,24.7,09.3,0000.0,0006.84,0003.46,0003.11
2022-01-15 19:47:00,,0830.1,5.01,0.00,23.0,22.4,00.0,31.9,24.7,09.3,0000.0,0007.44,0003.45,0003.09
2022-01-15 19:48:00,,0830.1,4.98,0.00,23.0,22.4,00.0,31.9,24.7,09.5,0000.0,0007.40,0003.43,0003.08
2022-01-15 19:49:00,,0830.1,5.01,0.00,22.9,22.4,00.0,31.9,24.7,09.4,0000.0,0007.45,0003.44,0003.08
2022-01-15 19:50:00,,0830.2,5.00,0.00,22.9,22.4,00.0,31.9,24.7,09.5,0000.0,0007.40,0003.42,0003.10
2022-01-15 19:51:00,,0830.1,5.01,0.00,22.9,22.4,00.0,31.9,24.7,09.4,0000.0,0007.30,0003.40,0003.12
2022-01-15 19:52:00,,0830.1,4.99,0.00,23.0,22.4,00.0,31.9,24.7,09.5,0000.0,0007.14,0003.40,0003.12
2022-01-15 19:53:00,,0830.1,5.01,0.00,23.0,22.4,00.0,31.9,24.7,09.6,0000.0,0007.27,0003.42,0003.14
2022-01-15 19:54:00,,0830.1,4.99,0.00,23.0,22.4,00.0,32.0,24.7,09.5,0000.0,0007.41,0003.43,0003.16
2022-01-15 19:55:00,,0830.0,5.01,0.00,23.0,22.4,00.0,31.9,24.8,09.7,0000.0,0007.10,0003.45,0003.17
2022-01-15 19:56:00,,0830.0,4.98,0.00,23.0,22.4,00.0,31.9,24.7,09.8,0000.0,0007.08,0003.47,0003.19
2022-01-15 19:57:00,,0830.0,5.02,0.00,22.9,22.4,00.0,31.9,24.7,09.7,0000.0,0006.99,0003.51,0003.22
2022-01-15 19:58:00,,0830.0,4.98,0.00,22.9,22.3,00.0,32.0,24.7,09.9,0000.0,0006.51,0003.55,0003.25
2022-01-15 19:59:00,,0830.0,5.01,0.00,22.9,22.4,00.0,31.9,24.7,09.9,0000.0,0006.91,0003.58,0003.27
